| time (UTC) | temp F | wind direction | speed MPH | gust MPH | rain 1hr in | rain 24hr in | rain mn in | humidity % | barometer mb |
| 20260508135548 | 43 | 165 | 0.0 | 0.0 | 0.00 | 0.00 | 0.00 | ||
| 20260508135031 | 43 | 172 | 0.0 | 0.0 | 0.00 | 0.00 | 0.00 | ||
| 20260508134514 | 43 | 149 | 0.0 | 0.0 | 0.00 | 0.00 | 0.00 | ||
| 20260508133957 | 43 | 148 | 0.0 | 0.0 | 0.00 | 0.00 | 0.00 | ||
| 20260508130815 | 45 | 181 | 0.0 | 0.0 | 0.00 | 0.00 | 0.00 | ||
| 20260508130258 | 45 | 180 | 0.0 | 0.0 | 0.00 | 0.00 | 0.00 | ||
| 20260508125741 | 46 | 180 | 0.0 | 0.0 | 0.00 | 0.00 | 0.00 | ||
| 20260508125224 | 46 | 180 | 0.0 | 0.0 | 0.00 | 0.00 | 0.00 | ||
| 20260508124707 | 45 | 175 | 0.0 | 0.0 | 0.00 | 0.00 | 0.00 | ||
| 20260508124150 | 45 | 165 | 0.0 | 0.0 | 0.00 | 0.00 | 0.00 | ||
| 20260508123633 | 45 | 176 | 0.0 | 0.0 | 0.00 | 0.00 | 0.00 | ||
| 20260508123116 | 45 | 180 | 0.0 | 0.0 | 0.00 | 0.00 | 0.00 | ||
| 20260508122559 | 45 | 174 | 0.0 | 0.0 | 0.00 | 0.00 | 0.00 | ||
| 20260508122042 | 44 | 162 | 0.0 | 0.0 | 0.00 | 0.00 | 0.00 | ||
| 20260508121526 | 43 | 177 | 0.0 | 0.0 | 0.00 | 0.00 | 0.00 | ||
| 20260508121008 | 43 | 181 | 0.0 | 0.0 | 0.00 | 0.00 | 0.00 | ||
| 20260508120452 | 43 | 182 | 0.0 | 0.0 | 0.00 | 0.00 | 0.00 | ||
| 20260508115934 | 44 | 181 | 0.0 | 0.0 | 0.00 | 0.00 | 0.00 | ||
| 20260508115418 | 44 | 180 | 0.0 | 0.0 | 0.00 | 0.00 | 0.00 | ||
| 20260508114900 | 44 | 180 | 0.0 | 0.0 | 0.00 | 0.00 | 0.00 | ||
| 20260508114344 | 44 | 180 | 0.0 | 0.0 | 0.00 | 0.00 | 0.00 | ||
| 20260508113826 | 43 | 181 | 0.0 | 0.0 | 0.00 | 0.00 | 0.00 | ||
| 20260508113310 | 43 | 180 | 0.0 | 0.0 | 0.00 | 0.00 | 0.00 | ||
| 20260508112752 | 42 | 183 | 0.0 | 0.0 | 0.00 | 0.00 | 0.00 | ||
| 20260508105611 | 40 | 199 | 0.0 | 0.0 | 0.00 | 0.00 | 0.00 | ||
| 20260508105054 | 40 | 182 | 0.0 | 0.0 | 0.00 | 0.00 | 0.00 | ||
| 20260508104537 | 40 | 181 | 0.0 | 0.0 | 0.00 | 0.00 | 0.00 | ||
| 20260508104020 | 40 | 180 | 0.0 | 0.0 | 0.00 | 0.00 | 0.00 | ||
| 20260508103503 | 41 | 183 | 0.0 | 0.0 | 0.00 | 0.00 | 0.00 | ||
| 20260508102946 | 41 | 187 | 0.0 | 0.0 | 0.00 | 0.00 | 0.00 | ||
| 20260508102429 | 42 | 190 | 0.0 | 0.0 | 0.00 | 0.00 | 0.00 | ||
| 20260508101912 | 42 | 182 | 0.0 | 0.0 | 0.00 | 0.00 | 0.00 | ||
| 20260508101355 | 42 | 186 | 0.0 | 0.0 | 0.00 | 0.00 | 0.00 | ||
| 20260508100838 | 41 | 189 | 0.0 | 0.0 | 0.00 | 0.00 | 0.00 | ||
| 20260508100321 | 41 | 184 | 0.0 | 0.0 | 0.00 | 0.00 | 0.00 | ||
| 20260508095804 | 41 | 190 | 0.0 | 0.0 | 0.00 | 0.00 | 0.00 | ||
| 20260508094730 | 42 | 180 | 0.0 | 0.0 | 0.00 | 0.00 | 0.00 | ||
| 20260508094213 | 42 | 177 | 0.0 | 0.0 | 0.00 | 0.00 | 0.00 | ||
| 20260508093656 | 43 | 196 | 0.0 | 0.0 | 0.00 | 0.00 | 0.00 | ||
| 20260508093139 | 42 | 187 | 0.0 | 0.0 | 0.00 | 0.00 | 0.00 | ||
| 20260508092105 | 41 | 182 | 0.0 | 0.0 | 0.00 | 0.00 | 0.00 | ||
| 20260508091549 | 41 | 185 | 0.0 | 0.0 | 0.00 | 0.00 | 0.00 | ||
| 20260508091031 | 41 | 193 | 0.0 | 0.0 | 0.00 | 0.00 | 0.00 | ||
| 20260508090515 | 41 | 183 | 0.0 | 0.0 | 0.00 | 0.00 | 0.00 | ||
| 20260508085957 | 41 | 230 | 0.0 | 0.0 | 0.00 | 0.00 | 0.00 | ||
| 20260508085441 | 42 | 188 | 0.0 | 0.0 | 0.00 | 0.00 | 0.00 | ||
| 20260508084923 | 42 | 233 | 0.0 | 0.0 | 0.00 | 0.00 | 0.00 | ||
| 20260508084407 | 43 | 228 | 0.0 | 0.0 | 0.00 | 0.00 | 0.00 | ||
| 20260508083849 | 42 | 240 | 0.0 | 0.0 | 0.00 | 0.00 | 0.00 | ||
| 20260508083333 | 41 | 253 | 0.0 | 0.0 | 0.00 | 0.00 | 0.00 | ||
| 20260508082815 | 40 | 214 | 0.0 | 0.0 | 0.00 | 0.00 | 0.00 | ||
| 20260508082259 | 40 | 205 | 0.0 | 0.0 | 0.00 | 0.00 | 0.00 | ||
| 20260508081741 | 40 | 209 | 0.0 | 0.0 | 0.00 | 0.00 | 0.00 | ||
| 20260508081225 | 40 | 181 | 0.0 | 0.0 | 0.00 | 0.00 | 0.00 | ||
| 20260508080707 | 41 | 184 | 0.0 | 0.0 | 0.00 | 0.00 | 0.00 | ||
| 20260508080151 | 40 | 238 | 0.0 | 0.0 | 0.00 | 0.00 | 0.00 | ||
| 20260508075634 | 40 | 192 | 0.0 | 0.0 | 0.00 | 0.00 | 0.00 | ||
| 20260508075117 | 40 | 188 | 0.0 | 0.0 | 0.00 | 0.00 | 0.00 | ||
| 20260508074600 | 40 | 199 | 0.0 | 1.0 | 0.00 | 0.00 | 0.00 | ||
| 20260508074043 | 40 | 198 | 0.0 | 0.0 | 0.00 | 0.00 | 0.00 | ||
| 20260508073526 | 40 | 185 | 0.0 | 0.0 | 0.00 | 0.00 | 0.00 | ||
| 20260508073009 | 40 | 230 | 0.0 | 0.0 | 0.00 | 0.00 | 0.00 | ||
| 20260508072452 | 39 | 252 | 0.0 | 0.0 | 0.00 | 0.00 | 0.00 | ||
| 20260508071935 | 39 | 192 | 0.0 | 0.0 | 0.00 | 0.00 | 0.00 | ||
| 20260508071418 | 40 | 195 | 0.0 | 0.0 | 0.00 | 0.00 | 0.00 | ||
| 20260508070901 | 40 | 171 | 0.0 | 0.0 | 0.00 | 0.00 | 0.00 | ||
| 20260508070344 | 40 | 283 | 0.0 | 0.0 | 0.00 | 0.00 | 0.00 | ||
| 20260508065827 | 40 | 295 | 0.0 | 0.0 | 0.00 | 0.00 | 0.00 | ||
| 20260508062645 | 37 | 22 | 0.0 | 0.0 | 0.00 | 0.00 | 0.00 | ||
| 20260508062128 | 36 | 240 | 0.0 | 0.0 | 0.00 | 0.00 | 0.00 | ||
| 20260508061611 | 35 | 294 | 0.0 | 0.0 | 0.00 | 0.00 | 0.00 | ||
| 20260508061054 | 34 | 293 | 0.0 | 0.0 | 0.00 | 0.00 | 0.00 | ||
| 20260508060537 | 33 | 22 | 0.0 | 0.0 | 0.00 | 0.00 | 0.00 | ||
| 20260508060020 | 33 | 324 | 0.0 | 0.0 | 0.00 | 0.00 | 0.00 | ||
| 20260508055504 | 32 | 334 | 0.0 | 0.0 | 0.00 | 0.00 | 0.00 | ||
| 20260508054946 | 31 | 336 | 0.0 | 0.0 | 0.00 | 0.00 | 0.00 | ||
| 20260508053912 | 29 | 326 | 0.0 | 0.0 | 0.00 | 0.00 | 0.00 | ||
| 20260508053356 | 28 | 302 | 0.0 | 0.0 | 0.00 | 0.00 | 0.00 | ||
| 20260508052838 | 27 | 341 | 0.0 | 0.0 | 0.00 | 0.00 | 0.00 | ||
| 20260508052322 | 27 | 319 | 0.0 | 0.0 | 0.00 | 0.00 | 0.00 | ||
| 20260508051804 | 26 | 321 | 0.0 | 0.0 | 0.00 | 0.00 | 0.00 | ||
| 20260508051248 | 25 | 315 | 0.0 | 0.0 | 0.00 | 0.00 | 0.00 | ||
| 20260508050730 | 25 | 315 | 0.0 | 0.0 | 0.00 | 0.00 | 0.00 | ||
| 20260508050214 | 24 | 320 | 0.0 | 0.0 | 0.00 | 0.00 | 0.00 | ||
| 20260508045656 | 24 | 303 | 0.0 | 0.0 | 0.00 | 0.00 | 0.00 | ||
| 20260508045140 | 24 | 296 | 0.0 | 0.0 | 0.00 | 0.00 | 0.00 | ||
| 20260508044622 | 23 | 298 | 0.0 | 0.0 | 0.00 | 0.00 | 0.00 | ||
| 20260508044106 | 23 | 304 | 0.0 | 0.0 | 0.00 | 0.00 | 0.00 | ||
| 20260508043549 | 23 | 270 | 0.0 | 0.0 | 0.00 | 0.00 | 0.00 | ||
| 20260508043032 | 23 | 270 | 0.0 | 0.0 | 0.00 | 0.00 | 0.00 | ||
| 20260508042515 | 23 | 25 | 0.0 | 0.0 | 0.00 | 0.00 | 0.00 | ||
| 20260508041958 | 23 | 56 | 0.0 | 0.0 | 0.00 | 0.00 | 0.00 | ||
| 20260508041441 | 23 | 157 | 0.0 | 0.0 | 0.00 | 0.00 | 0.00 | ||
| 20260508040924 | 23 | 180 | 0.0 | 0.0 | 0.00 | 0.00 | 0.00 | ||
| 20260508040407 | 22 | 196 | 0.0 | 0.0 | 0.00 | 0.00 | 0.00 | ||
| 20260508035850 | 22 | 270 | 0.0 | 0.0 | 0.00 | 0.00 | 0.00 | ||
| 20260508035333 | 22 | 337 | 0.0 | 0.0 | 0.00 | 0.00 | 0.00 | ||
| 20260508034816 | 22 | 67 | 0.0 | 0.0 | 0.00 | 0.00 | 0.00 | ||
| 20260508034259 | 22 | 5 | 0.0 | 0.0 | 0.00 | 0.00 | 0.00 | ||
| 20260508033742 | 22 | 300 | 0.0 | 0.0 | 0.00 | 0.00 | 0.00 | ||
| 20260508033225 | 22 | 315 | 0.0 | 0.0 | 0.00 | 0.00 | 0.00 | ||
| 20260508032708 | 22 | 315 | 0.0 | 0.0 | 0.00 | 0.00 | 0.00 | ||
| 20260508032151 | 21 | 321 | 0.0 | 0.0 | 0.00 | 0.00 | 0.00 | ||
| 20260508031634 | 21 | 255 | 0.0 | 0.0 | 0.00 | 0.00 | 0.00 | ||
| 20260508031117 | 21 | 8 | 0.0 | 0.0 | 0.00 | 0.00 | 0.00 | ||
| 20260508030600 | 20 | 352 | 0.0 | 0.0 | 0.00 | 0.00 | 0.00 | ||
| 20260508030043 | 20 | 340 | 0.0 | 0.0 | 0.00 | 0.00 | 0.00 | ||
| 20260508025526 | 20 | 337 | 0.0 | 0.0 | 0.00 | 0.00 | 0.00 | ||
| 20260508025009 | 20 | 261 | 0.0 | 0.0 | 0.00 | 0.00 | 0.00 | ||
| 20260508024452 | 20 | 205 | 0.0 | 0.0 | 0.00 | 0.00 | 0.00 | ||
| 20260508023935 | 20 | 337 | 0.0 | 0.0 | 0.00 | 0.00 | 0.00 | ||
| 20260508023418 | 20 | 326 | 0.0 | 0.0 | 0.00 | 0.00 | 0.00 | ||
| 20260508022901 | 20 | 320 | 0.0 | 0.0 | 0.00 | 0.00 | 0.00 | ||
| 20260508022344 | 20 | 90 | 0.0 | 0.0 | 0.00 | 0.00 | 0.00 | ||
| 20260508021827 | 20 | 315 | 0.0 | 0.0 | 0.00 | 0.00 | 0.00 | ||
| 20260508021311 | 19 | 227 | 0.0 | 0.0 | 0.00 | 0.00 | 0.00 | ||
| 20260508020753 | 19 | 202 | 0.0 | 0.0 | 0.00 | 0.00 | 0.00 | ||
| 20260508020237 | 19 | 90 | 0.0 | 0.0 | 0.00 | 0.00 | 0.00 | ||
| 20260508015719 | 19 | 90 | 0.0 | 0.0 | 0.00 | 0.00 | 0.00 | ||
| 20260508015203 | 19 | 97 | 0.0 | 0.0 | 0.00 | 0.00 | 0.00 | ||
| 20260508014645 | 18 | 337 | 0.0 | 0.0 | 0.00 | 0.00 | 0.00 | ||
| 20260508014129 | 18 | 37 | 0.0 | 0.0 | 0.00 | 0.00 | 0.00 | ||
| 20260508013611 | 17 | 337 | 0.0 | 0.0 | 0.00 | 0.00 | 0.00 | ||
| 20260508013055 | 17 | 47 | 0.0 | 0.0 | 0.00 | 0.00 | 0.00 | ||
| 20260508012537 | 17 | 337 | 0.0 | 0.0 | 0.00 | 0.00 | 0.00 | ||
| 20260508012021 | 17 | 337 | 0.0 | 0.0 | 0.00 | 0.00 | 0.00 | ||
| 20260508011504 | 16 | 180 | 0.0 | 0.0 | 0.00 | 0.00 | 0.00 | ||
| 20260508010947 | 17 | 315 | 0.0 | 0.0 | 0.00 | 0.00 | 0.00 | ||
| 20260508010430 | 17 | 316 | 0.0 | 0.0 | 0.00 | 0.00 | 0.00 | ||
| 20260508005913 | 17 | 337 | 0.0 | 0.0 | 0.00 | 0.00 | 0.00 | ||
| 20260508005356 | 17 | 106 | 0.0 | 0.0 | 0.00 | 0.00 | 0.00 | ||
| 20260508004839 | 18 | 330 | 0.0 | 0.0 | 0.00 | 0.00 | 0.00 | ||
| 20260508004322 | 18 | 320 | 0.0 | 0.0 | 0.00 | 0.00 | 0.00 | ||
| 20260508003805 | 17 | 337 | 0.0 | 0.0 | 0.00 | 0.00 | 0.00 | ||
| 20260508003248 | 17 | 334 | 0.0 | 0.0 | 0.00 | 0.00 | 0.00 | ||
| 20260508002731 | 17 | 336 | 0.0 | 0.0 | 0.00 | 0.00 | 0.00 | ||
| 20260508002214 | 17 | 339 | 0.0 | 0.0 | 0.00 | 0.00 | 0.00 | ||
| 20260508001657 | 17 | 315 | 0.0 | 0.0 | 0.00 | 0.00 | 0.00 | ||
| 20260508001140 | 18 | 292 | 0.0 | 0.0 | 0.00 | 0.00 | 0.00 | ||
| 20260508000623 | 18 | 292 | 0.0 | 0.0 | 0.00 | 0.00 | 0.00 | ||
| 20260508000106 | 18 | 337 | 0.0 | 0.0 | 0.00 | 0.00 | 0.00 | ||
| 20260507235549 | 18 | 315 | 0.0 | 0.0 | 0.00 | 0.00 | 0.00 | ||
| 20260507235032 | 18 | 329 | 0.0 | 0.0 | 0.00 | 0.00 | 0.00 | ||
| 20260507234515 | 18 | 355 | 0.0 | 0.0 | 0.00 | 0.00 | 0.00 | ||
| 20260507233958 | 18 | 262 | 0.0 | 0.0 | 0.00 | 0.00 | 0.00 | ||
| 20260507233441 | 18 | 337 | 0.0 | 0.0 | 0.00 | 0.00 | 0.00 | ||
| 20260507232924 | 17 | 80 | 0.0 | 0.0 | 0.00 | 0.00 | 0.00 | ||
| 20260507232407 | 18 | 315 | 0.0 | 0.0 | 0.00 | 0.00 | 0.00 | ||
| 20260507231850 | 18 | 303 | 0.0 | 0.0 | 0.00 | 0.00 | 0.00 | ||
| 20260507231333 | 19 | 324 | 0.0 | 0.0 | 0.00 | 0.00 | 0.00 | ||
| 20260507230816 | 19 | 37 | 0.0 | 0.0 | 0.00 | 0.00 | 0.00 | ||
| 20260507230259 | 18 | 22 | 0.0 | 0.0 | 0.00 | 0.00 | 0.00 | ||
| 20260507225742 | 19 | 344 | 0.0 | 0.0 | 0.00 | 0.00 | 0.00 | ||
| 20260507225226 | 19 | 320 | 0.0 | 0.0 | 0.00 | 0.00 | 0.00 | ||
| 20260507224708 | 20 | 275 | 0.0 | 0.0 | 0.00 | 0.00 | 0.00 | ||
| 20260507224152 | 20 | 22 | 0.0 | 0.0 | 0.00 | 0.00 | 0.00 | ||
| 20260507223634 | 19 | 337 | 0.0 | 0.0 | 0.00 | 0.00 | 0.00 | ||
| 20260507223118 | 19 | 11 | 0.0 | 0.0 | 0.00 | 0.00 | 0.00 | ||
| 20260507222600 | 19 | 319 | 0.0 | 0.0 | 0.00 | 0.00 | 0.00 | ||
| 20260507222044 | 20 | 315 | 0.0 | 0.0 | 0.00 | 0.00 | 0.00 | ||
| 20260507221526 | 20 | 315 | 0.0 | 0.0 | 0.00 | 0.00 | 0.00 | ||
| 20260507221010 | 20 | 325 | 0.0 | 0.0 | 0.00 | 0.00 | 0.00 | ||
| 20260507220452 | 20 | 71 | 0.0 | 0.0 | 0.00 | 0.00 | 0.00 | ||
| 20260507215936 | 21 | 270 | 0.0 | 0.0 | 0.00 | 0.00 | 0.00 | ||
| 20260507215419 | 22 | 337 | 0.0 | 0.0 | 0.00 | 0.00 | 0.00 | ||
| 20260507214902 | 22 | 67 | 0.0 | 0.0 | 0.00 | 0.00 | 0.00 | ||
| 20260507214345 | 22 | 337 | 0.0 | 0.0 | 0.00 | 0.00 | 0.00 | ||
| 20260507213828 | 22 | 202 | 0.0 | 0.0 | 0.00 | 0.00 | 0.00 | ||
| 20260507213311 | 22 | 274 | 0.0 | 0.0 | 0.00 | 0.00 | 0.00 | ||
| 20260507212754 | 23 | 180 | 0.0 | 0.0 | 0.00 | 0.00 | 0.00 | ||
| 20260507212237 | 23 | 337 | 0.0 | 0.0 | 0.00 | 0.00 | 0.00 | ||
| 20260507211720 | 23 | 284 | 0.0 | 0.0 | 0.00 | 0.00 | 0.00 | ||
| 20260507211203 | 23 | 12 | 0.0 | 0.0 | 0.00 | 0.00 | 0.00 | ||
| 20260507210646 | 24 | 60 | 0.0 | 0.0 | 0.00 | 0.00 | 0.00 | ||
| 20260507210129 | 24 | 318 | 0.0 | 0.0 | 0.00 | 0.00 | 0.00 | ||
| 20260507205612 | 24 | 356 | 0.0 | 0.0 | 0.00 | 0.00 | 0.00 | ||
| 20260507205055 | 25 | 281 | 0.0 | 0.0 | 0.00 | 0.00 | 0.00 | ||
| 20260507204538 | 25 | 153 | 0.0 | 0.0 | 0.00 | 0.00 | 0.00 | ||
| 20260507204021 | 24 | 337 | 0.0 | 0.0 | 0.00 | 0.00 | 0.00 | ||
| 20260507203504 | 24 | 7 | 0.0 | 0.0 | 0.00 | 0.00 | 0.00 | ||
| 20260507202947 | 24 | 317 | 0.0 | 0.0 | 0.00 | 0.00 | 0.00 | ||
| 20260507202430 | 24 | 277 | 0.0 | 0.0 | 0.00 | 0.00 | 0.00 | ||
| 20260507201913 | 24 | 168 | 0.0 | 0.0 | 0.00 | 0.00 | 0.00 | ||
| 20260507201356 | 23 | 101 | 0.0 | 0.0 | 0.00 | 0.00 | 0.00 | ||
| 20260507200839 | 23 | 337 | 0.0 | 0.0 | 0.00 | 0.00 | 0.00 | ||
| 20260507200322 | 23 | 325 | 0.0 | 0.0 | 0.00 | 0.00 | 0.00 | ||
| 20260507195805 | 23 | 349 | 0.0 | 0.0 | 0.00 | 0.00 | 0.00 | ||
| 20260507195248 | 24 | 5 | 0.0 | 0.0 | 0.00 | 0.00 | 0.00 | ||
| 20260507194731 | 24 | 304 | 0.0 | 0.0 | 0.00 | 0.00 | 0.00 | ||
| 20260507194214 | 25 | 299 | 0.0 | 0.0 | 0.00 | 0.00 | 0.00 | ||
| 20260507193657 | 26 | 337 | 0.0 | 0.0 | 0.00 | 0.00 | 0.00 | ||
| 20260507193140 | 26 | 337 | 0.0 | 0.0 | 0.00 | 0.00 | 0.00 | ||
| 20260507192623 | 27 | 337 | 0.0 | 0.0 | 0.00 | 0.00 | 0.00 | ||
| 20260507192107 | 27 | 22 | 0.0 | 0.0 | 0.00 | 0.00 | 0.00 | ||
| 20260507191549 | 27 | 343 | 0.0 | 0.0 | 0.00 | 0.00 | 0.00 | ||
| 20260507191033 | 28 | 315 | 0.0 | 0.0 | 0.00 | 0.00 | 0.00 | ||
| 20260507190515 | 29 | 135 | 0.0 | 0.0 | 0.00 | 0.00 | 0.00 | ||
| 20260507185959 | 30 | 337 | 0.0 | 0.0 | 0.00 | 0.00 | 0.00 | ||
| 20260507185441 | 31 | 337 | 0.0 | 0.0 | 0.00 | 0.00 | 0.00 | ||
| 20260507184925 | 32 | 22 | 0.0 | 0.0 | 0.00 | 0.00 | 0.00 | ||
| 20260507184407 | 33 | 270 | 0.0 | 0.0 | 0.00 | 0.00 | 0.00 | ||
| 20260507183851 | 33 | 90 | 0.0 | 0.0 | 0.00 | 0.00 | 0.00 | ||
| 20260507183334 | 34 | 337 | 0.0 | 0.0 | 0.00 | 0.00 | 0.00 | ||
| 20260507182817 | 34 | 337 | 0.0 | 0.0 | 0.00 | 0.00 | 0.00 | ||
| 20260507182300 | 35 | 0 | 0.0 | 0.0 | 0.00 | 0.00 | 0.00 | ||
| 20260507181743 | 36 | 337 | 0.0 | 0.0 | 0.00 | 0.00 | 0.00 | ||
| 20260507181226 | 36 | 112 | 0.0 | 0.0 | 0.00 | 0.00 | 0.00 | ||
| 20260507180710 | 36 | 337 | 0.0 | 0.0 | 0.00 | 0.00 | 0.00 | ||
| 20260507180152 | 36 | 45 | 0.0 | 0.0 | 0.00 | 0.00 | 0.00 | ||
| 20260507175635 | 36 | 337 | 0.0 | 0.0 | 0.00 | 0.00 | 0.00 | ||
| 20260507175118 | 36 | 337 | 0.0 | 0.0 | 0.00 | 0.00 | 0.00 | ||
| 20260507174601 | 36 | 337 | 0.0 | 0.0 | 0.00 | 0.00 | 0.00 | ||
| 20260507174044 | 36 | 112 | 0.0 | 0.0 | 0.00 | 0.00 | 0.00 | ||
| 20260507173527 | 37 | 337 | 0.0 | 0.0 | 0.00 | 0.00 | 0.00 | ||
| 20260507173010 | 38 | 315 | 0.0 | 0.0 | 0.00 | 0.00 | 0.00 | ||
| 20260507172453 | 40 | 180 | 0.0 | 0.0 | 0.00 | 0.00 | 0.00 | ||
| 20260507171936 | 40 | 337 | 0.0 | 0.0 | 0.00 | 0.00 | 0.00 | ||
| 20260507171419 | 40 | 189 | 0.0 | 0.0 | 0.00 | 0.00 | 0.00 | ||
| 20260507170902 | 40 | 192 | 0.0 | 0.0 | 0.00 | 0.00 | 0.00 | ||
| 20260507170345 | 40 | 170 | 0.0 | 0.0 | 0.00 | 0.00 | 0.00 | ||
| 20260507165828 | 40 | 147 | 0.0 | 0.0 | 0.00 | 0.00 | 0.00 | ||
| 20260507165311 | 40 | 140 | 0.0 | 0.0 | 0.00 | 0.00 | 0.00 | ||
| 20260507164754 | 40 | 153 | 0.0 | 0.0 | 0.00 | 0.00 | 0.00 | ||
| 20260507164237 | 40 | 337 | 0.0 | 0.0 | 0.00 | 0.00 | 0.00 | ||
| 20260507163720 | 40 | 150 | 0.0 | 0.0 | 0.00 | 0.00 | 0.00 | ||
| 20260507163203 | 40 | 176 | 0.0 | 0.0 | 0.00 | 0.00 | 0.00 | ||
| 20260507162646 | 40 | 199 | 0.0 | 0.0 | 0.00 | 0.00 | 0.00 | ||
| 20260507162129 | 40 | 180 | 0.0 | 0.0 | 0.00 | 0.00 | 0.00 | ||
| 20260507161612 | 40 | 141 | 0.0 | 0.0 | 0.00 | 0.00 | 0.00 | ||
| 20260507161055 | 40 | 170 | 0.0 | 0.0 | 0.00 | 0.00 | 0.00 | ||
| 20260507160538 | 40 | 154 | 0.0 | 0.0 | 0.00 | 0.00 | 0.00 | ||
| 20260507160022 | 40 | 151 | 0.0 | 0.0 | 0.00 | 0.00 | 0.00 | ||
| 20260507155504 | 40 | 151 | 0.0 | 0.0 | 0.00 | 0.00 | 0.00 | ||
| 20260507154948 | 40 | 175 | 0.0 | 0.0 | 0.00 | 0.00 | 0.00 | ||
| 20260507154430 | 40 | 166 | 0.0 | 0.0 | 0.00 | 0.00 | 0.00 | ||
| 20260507153914 | 40 | 141 | 0.0 | 0.0 | 0.00 | 0.00 | 0.00 | ||
| 20260507153356 | 40 | 164 | 0.0 | 0.0 | 0.00 | 0.00 | 0.00 | ||
| 20260507152840 | 40 | 168 | 0.0 | 0.0 | 0.00 | 0.00 | 0.00 | ||
| 20260507152322 | 40 | 180 | 0.0 | 0.0 | 0.00 | 0.00 | 0.00 | ||
| 20260507151806 | 40 | 182 | 0.0 | 0.0 | 0.00 | 0.00 | 0.00 | ||
| 20260507151249 | 40 | 152 | 0.0 | 0.0 | 0.00 | 0.00 | 0.00 | ||
| 20260507150732 | 41 | 152 | 0.0 | 0.0 | 0.00 | 0.00 | 0.00 | ||
| 20260507150215 | 40 | 181 | 0.0 | 0.0 | 0.00 | 0.00 | 0.00 | ||
| 20260507145658 | 40 | 166 | 0.0 | 0.0 | 0.00 | 0.00 | 0.00 | ||
| 20260507145141 | 41 | 162 | 0.0 | 0.0 | 0.00 | 0.00 | 0.00 | ||
| 20260507144624 | 40 | 160 | 0.0 | 0.0 | 0.00 | 0.00 | 0.00 | ||
| 20260507144107 | 40 | 150 | 0.0 | 0.0 | 0.00 | 0.00 | 0.00 | ||
| 20260507143550 | 40 | 163 | 0.0 | 0.0 | 0.00 | 0.00 | 0.00 | ||
| 20260507143033 | 40 | 150 | 0.0 | 0.0 | 0.00 | 0.00 | 0.00 | ||
| 20260507142516 | 41 | 146 | 0.0 | 0.0 | 0.00 | 0.00 | 0.00 | ||
| 20260507141959 | 41 | 166 | 0.0 | 0.0 | 0.00 | 0.00 | 0.00 | ||
| 20260507141442 | 41 | 159 | 0.0 | 0.0 | 0.00 | 0.00 | 0.00 | ||
| 20260507140925 | 41 | 145 | 0.0 | 0.0 | 0.00 | 0.00 | 0.00 | ||
| 20260507140408 | 41 | 147 | 0.0 | 0.0 | 0.00 | 0.00 | 0.00 | ||
| 20260507135851 | 40 | 146 | 0.0 | 0.0 | 0.00 | 0.00 | 0.00 |